SCP
0 0 0 0 0 0 0 0 0 0 -0 0 0 0 0 0 0 0 0 0 0 -0 -0 0 0 0 0 0 0 0 0 0 0 0 0 0 0 0 0 0 0 0 0 0 0 0 0
0 0 0 0 0 0 0 0 0 0 0 -0 0 0 0 0 0 0 0 0 0 0 0 0 0 0 0 0 0 0 0 0 0 0 0 0 0 0 0 0 0 0 0 0 0 0 0
0 0 0 0 0 0 0 0 0 0 0 0 0 0 0 0 0 0 0 0 0 0 0 0 0 0 0 0 0 0 0 0 0 0 0 0 0 0 0 0 0 0 0 0 0 0 0
0 0 0 0 0 0 0 0 0 -0 0 0 0 0 0 0 0 -0 0 0 0 0 0 0 0 0 0 0 0 0 0 0 0 0 0 0 0 0 0 0 0 0 0 0 0 0 0
0 0 0 0 0 0 0 0 0 0 0 0 0 0 0 0 0 0 0 0 0 0 0 0 0 0 0 0 0 0 0 0 0 0 0 0 0 0 0 0 0 0 0 0 0 0 0
0 0 0 0 0 0 0 0 0 0 0 0 0 0 0 0 0 0 0 0 0 0 0 0 0 0 0 0 0 0 0 0 0 0 0 0 0 0 0 0 0 0 0 0 0 0 0
0 0 0 0 0 0 0 0 0 0 0 0 0 0 0 0 0 0 0 0 0 0 0 0 0 0 0 0 0 0 0 0 0 0 0 0 0 0 0 0 0 0 0 0 0 0 0
0 0 0 0 0 0 0 0 0 0 0 0 0 0 0 0 -0 -0 0 0 0 0 0 0 0 0 0 0 0 0 0 0 0 0 0 0 0 0 0 0 0 0 0 0 0 0 0
0 0 0 0 0 0 0 0 0 0 0 0 0 0 0 0 0 0 0 0 0 0 0 0 0 0 0 0 0 0 0 0 0 0 0 0 0 0 0 0 0 0 0 0 0 0 0
0 0 0 0 0 0 0 0 0 0 0 0 0 0 0 0 0 0 0 0 0 0 0 0 0 0 0 0 0 0 0 0 0 0 0 0 0 0 0 0 0 0 0 0 0 0 0
-0 0 0 0 0 0 0 0 0 0 0 0 0 0 0 0 0 0 0 0 0 0 0 0 0 0 0 0 0 0 0 0 0 0 0 0 0 0 0 0 0 0 0 0 0 0 0
-0 -0 0 0 0 0 0 0 0 0 0 0 0 0 0 0 0 0 0 0 0 0 0 0 0 0 0 0 0 0 0 0 0 0 0 0 0 0 0 0 0 0 0 0 0 0 0
-0 -0 0 0 0 0 0 0 0 0 0 0 0 -0 -0 -0 0 0 0 0 0 0 0 0 0 0 0 0 0 0 0 0 0 0 0 0 0 0 0 0 0 0 0 0 0 0 0
-0 -0 -0 -0 0 0 0 -0 -0 -0 0 0 0 0 -0 -0 -0 -0 0 0 -0 0 0 0 0 0 0 0 0 0 0 0 0 0 0 0 0 0 0 0 0 0 0 0 0 0 0
-0 -0 -0 -0 -0 0 0 -0 -0 -0 -0 0 0 0 0 0 0 -0 0 0 0 0 0 0 0 0 0 0 0 0 0 0 0 0 0 0 0 0 0 0 0 0 0 0 0 0 0
-0 -0 -0 -0 -0 -0 0 -0 -0 -0 0 0 0 0 0 0 0 0 -0 0 0 0 0 0 0 0 0 0 0 0 0 0 0 0 0 0 0 0 0 0 0 0 0 0 0 0 0
-0 -0 -0 -0 -0 0 0 -0 -0 -0 0 0 0 0 0 0 0 -0 -0 0 0 0 0 0 0 0 0 0 0 0 0 0 0 0 0 0 0 0 0 0 0 0 0 0 0 0 0
-0 -0 -0 0 0 0 0 -0 -0 -0 -0 0 0 -0 0 0 -0 0 0 0 0 0 0 0 0 0 0 0 0 0 0 0 0 0 0 0 0 0 0 0 0 0 0 0 0 0 0
0 -0 -0 0 0 0 0 -0 -0 -0 0 0 0 0 0 -0 -0 -0 0 0 0 -0 -0 0 0 0 0 0 0 0 0 0 0 0 0 0 0 0 0 0 0 0 0 0 0 0 0
0 0 -0 -0 -0 -0 -0 -0 -0 -0 -0 0 0 0 0 -0 -0 0 -0 -0 -0 -0 -0 -0 -0 0 0 0 0 0 0 0 0 0 0 0 0 0 0 0 0 0 0 0 0 0 0
0 0 0 -0 -0 -0 -0 -0 -0 -0 -0 0 0 0 0 0 0 0 -0 -0 -0 -0 -0 0 -0 -0 0 0 0 0 0 0 0 0 0 0 0 0 0 0 0 0 0 0 0 0 0
0 0 0 0 0 -0 -0 -0 -0 -0 0 0 0 0 0 0 0 0 0 0 0 -0 -0 -0 -0 -0 -0 0 0 0 0 0 0 0 0 0 0 0 0 0 0 0 0 0 0 0 0
0 0 0 0 0 0 0 -0 -0 -0 0 0 0 0 0 0 0 0 0 0 0 0 0 0 0 0 0 0 0 0 0 0 0 0 0 0 0 0 0 0 0 0 0 0 0 0 0
0 0 0 0 0 0 0 0 0 -0 0 0 0 0 0 -0 0 -0 -0 -0 -0 0 0 0 0 0 0 0 0 0 0 0 0 0 0 0 0 0 0 0 0 0 0 0 0 0 0
0 0 0 0 0 0 0 0 0 0 0 0 0 0 0 0 0 0 0 0 0 0 0 0 0 0 0 0 0 0 0 0 0 0 0 0 0 0 0 0 0 0 0 0 0 0 0
0 0 0 0 0 0 0 0 0 0 0 0 0 0 0 0 0 0 0 0 0 0 0 0 0 0 0 0 0 0 0 0 0 0 0 0 0 0 0 0 0 0 0 0 0 0 0
0 0 0 0 0 0 0 0 0 0 0 0 0 0 0 0 0 0 0 0 0 0 0 0 0 0 0 0 0 0 0 0 0 0 0 0 0 0 0 0 0 0 0 0 0 0 0
0 0 0 0 0 0 0 0 0 0 0 0 0 0 0 0 0 0 0 0 0 0 0 0 0 0 0 0 0 0 0 0 0 0 0 0 0 0 0 0 0 0 0 0 0 0 0
0 0 0 0 0 0 0 0 0 0 0 0 0 0 0 0 0 0 0 0 0 0 0 0 0 0 0 0 0 0 0 0 0 0 0 0 0 0 0 0 0 0 0 0 0 0 0
Wind_Speed_500mb
39 41 43 46 47 46 41 37 40 35 41 41 36 30 24 21 19 26 41 35 22 32 40 41 38 33 26 12 8 8 17 24 27 29 37 35 30 12 11 12 11 8 5 11 11 11 10
37 38 39 40 43 43 41 36 33 31 28 35 34 29 28 40 36 33 29 29 24 42 38 27 27 30 18 10 8 4 20 26 23 28 35 31 18 13 18 7 7 12 15 10 11 9 7
35 37 38 38 38 40 39 37 34 30 27 28 28 34 33 33 42 37 41 43 38 31 21 25 28 22 14 9 7 8 22 22 22 28 31 23 25 11 14 10 17 20 10 3 14 10 3
40 38 36 34 33 34 35 32 29 28 26 23 23 26 32 39 37 47 44 30 26 20 24 26 21 14 11 14 13 16 19 18 21 26 26 27 21 22 8 25 11 9 9 6 5 19 3
48 47 42 36 30 27 27 28 28 25 22 22 19 21 20 19 21 19 16 19 19 18 15 13 10 9 10 16 16 16 17 20 24 29 31 26 16 14 10 8 9 12 5 2 3 10 7
53 55 55 48 38 28 22 19 19 19 17 16 16 15 13 9 12 17 23 23 15 16 17 13 11 13 8 14 19 16 19 21 13 32 24 9 11 9 8 8 8 7 5 0 4 9 9
55 58 61 60 53 38 24 19 17 14 9 7 10 11 9 10 8 9 20 3 2 11 33 16 15 26 26 26 22 12 16 18 19 11 8 11 16 7 3 2 5 11 8 2 1 4 8
54 58 61 64 62 53 35 20 15 15 15 13 17 11 2 11 7 9 11 2 12 17 23 30 31 35 27 18 14 9 5 4 6 9 4 13 9 4 1 8 12 11 6 3 6 4 3
49 54 58 63 65 62 48 28 19 15 15 15 12 15 16 15 15 6 9 26 16 3 10 19 28 21 16 16 12 17 6 10 13 12 10 13 8 1 5 8 9 7 8 2 4 11 3
47 51 54 58 63 65 58 38 21 18 15 18 12 8 7 8 10 12 8 4 0 3 9 20 16 15 12 7 9 20 9 5 13 11 9 14 3 5 7 9 3 5 1 4 4 7 5
46 49 51 55 57 61 64 52 25 19 17 17 15 7 3 5 3 3 4 2 1 2 11 13 10 7 14 10 4 16 21 13 9 8 5 2 4 7 11 1 3 6 4 5 4 6 5
41 47 51 54 57 59 62 59 36 22 20 22 20 11 3 1 1 2 2 2 3 11 0 10 8 9 6 14 7 6 10 19 10 11 15 8 5 6 5 5 7 12 7 9 7 3 4
43 47 49 53 56 57 60 59 47 25 14 26 30 23 11 6 2 4 4 1 10 12 5 6 5 7 7 11 10 11 10 11 6 10 6 8 6 4 4 7 4 6 9 6 9 7 8
41 47 51 53 56 58 58 59 55 34 19 11 20 24 23 19 13 8 5 9 18 1 1 2 2 5 8 8 7 11 6 7 12 9 7 9 8 4 8 3 7 5 5 9 10 4 8
37 42 47 53 58 60 59 56 57 51 24 14 5 28 32 21 17 13 1 13 10 5 3 4 3 8 7 7 6 9 8 3 4 10 8 7 2 3 7 4 4 3 3 4 12 3 3
33 38 43 48 52 57 61 60 57 57 37 19 10 5 46 25 17 8 12 8 1 4 3 1 5 4 4 8 6 7 4 5 3 8 3 5 7 3 3 4 12 2 9 7 5 2 8
30 32 36 41 47 51 55 58 56 53 43 26 15 4 47 23 13 16 8 5 4 1 1 3 5 6 5 4 5 4 2 2 3 2 9 5 5 3 2 7 11 3 1 9 5 4 6
27 32 34 36 39 45 49 53 57 55 50 23 15 8 43 16 14 10 6 4 1 4 8 5 7 6 4 3 5 5 5 3 1 3 5 2 8 5 2 1 3 5 9 9 7 7 2
25 28 31 33 36 39 43 46 50 55 54 29 7 9 36 21 8 7 3 6 8 9 9 8 5 6 3 4 5 2 3 1 1 3 9 9 2 4 9 6 4 7 8 6 8 5 11
24 27 29 32 35 36 38 41 43 49 50 29 8 7 16 32 19 11 5 7 7 10 7 8 4 5 5 6 9 6 4 0 2 3 7 7 5 9 11 7 8 7 9 11 10 6 9
24 28 30 31 34 37 40 40 41 41 42 30 17 8 9 8 13 11 4 3 5 3 5 9 7 6 3 3 3 1 2 2 5 5 5 6 4 3 9 12 6 9 10 15 19 18 15
24 28 31 31 30 31 34 36 40 38 34 32 10 8 9 8 10 5 10 2 3 2 1 0 9 6 3 2 5 6 10 8 9 3 9 0 5 8 8 5 13 12 22 28 31 19 21
24 28 31 37 38 34 31 32 33 33 33 20 19 14 6 10 9 7 8 6 3 1 1 1 1 2 3 5 9 11 15 7 10 14 11 7 8 3 9 7 13 14 15 19 10 10 14
29 27 29 31 36 35 31 29 27 26 24 19 17 11 5 1 5 3 6 6 7 8 3 3 0 0 1 4 11 10 10 10 9 9 8 10 8 3 6 7 5 9 1 11 13 5 19
37 37 32 31 33 32 30 25 23 21 19 16 14 8 5 2 4 1 6 0 6 9 5 7 4 4 4 4 5 7 3 2 3 6 6 3 6 2 5 5 14 8 6 4 2 6 10
31 32 30 31 32 33 30 27 23 18 14 12 9 8 5 4 8 5 4 6 6 1 10 3 5 7 4 5 4 5 7 6 5 5 9 10 6 7 6 6 10 2 3 8 3 2 11
29 32 32 29 29 31 30 28 24 21 17 13 8 5 4 6 6 9 5 4 4 3 4 6 3 3 4 3 3 8 9 5 7 9 9 7 4 16 14 9 14 9 10 9 2 1 12
34 35 36 36 35 31 28 26 23 21 19 16 12 10 7 5 15 17 11 8 7 6 4 2 5 4 5 5 5 6 6 6 5 6 11 13 13 8 6 7 14 20 9 5 3 18 16
21 18 18 20 25 25 24 23 30 28 24 20 20 15 13 14 18 26 37 37 33 29 16 12 5 5 11 5 4 4 5 2 5 6 2 5 10 8 16 10 11 20 16 9 20 25 32
Wind_Direction_500mb
23 22 22 23 24 25 30 34 36 35 38 45 54 55 54 39 62 99 151 142 109 131 134 136 140 140 137 149 69 167 201 182 166 163 167 160 156 149 144 126 106 88 134 87 103 86 79
17 20 19 22 22 25 29 36 42 39 37 47 58 57 52 69 77 90 113 146 135 124 122 118 128 135 120 82 33 161 182 166 159 163 159 159 161 162 117 82 81 120 104 94 61 46 66
16 15 16 18 24 24 27 37 44 46 47 48 50 54 65 81 84 90 105 119 116 127 126 127 124 120 106 98 82 161 164 159 161 155 154 157 148 139 125 103 114 125 87 52 26 360 31
19 18 16 18 19 27 26 28 43 56 52 59 60 66 81 92 96 99 104 91 96 107 111 116 115 104 79 94 94 147 150 150 147 150 151 135 132 114 73 118 60 66 61 119 1 3 9
34 27 24 22 22 25 31 27 27 40 61 74 73 80 80 97 111 109 77 86 86 88 104 123 129 113 97 91 110 122 141 136 135 134 128 126 121 86 93 75 46 15 166 163 300 35 322
37 36 32 27 24 25 25 35 40 36 33 55 77 83 86 87 92 92 90 92 99 86 99 100 114 107 83 80 91 121 142 145 135 128 113 107 80 76 36 55 189 178 136 208 269 334 353
37 35 33 31 26 21 28 20 38 38 49 87 77 68 95 116 123 139 136 138 67 85 77 75 82 94 94 89 96 109 141 132 136 116 80 34 71 92 130 10 91 107 96 83 33 351 324
35 33 31 30 30 24 22 28 35 40 34 35 37 34 11 222 229 197 190 309 116 122 75 70 79 78 74 83 82 74 136 161 88 84 0 34 89 190 201 72 83 60 103 356 280 1 327
31 30 29 27 26 27 23 24 31 39 35 31 45 34 56 78 85 118 145 111 117 121 88 42 48 50 47 77 54 14 47 95 85 57 19 106 157 175 124 46 80 41 101 74 243 327 53
28 25 26 26 25 23 25 23 25 32 39 46 24 49 58 81 85 102 100 97 24 297 87 343 7 32 17 97 59 33 42 84 46 128 88 84 357 116 82 75 49 133 169 107 29 28 281
21 22 22 22 25 25 22 25 28 27 23 23 28 19 61 78 128 103 98 30 324 241 70 324 343 24 45 83 100 17 32 63 90 102 109 264 64 85 69 16 359 143 98 93 91 87 33
19 18 18 20 21 23 27 25 28 29 26 15 21 28 17 179 43 81 14 37 124 47 221 352 325 348 52 30 39 19 59 74 111 77 38 100 77 62 119 63 64 145 89 53 60 77 28
13 14 16 16 17 21 22 26 26 20 28 37 27 36 38 52 42 9 2 96 43 84 268 314 354 13 77 4 25 31 29 25 77 85 18 26 5 4 92 86 30 78 56 341 349 11 225
7 7 8 11 13 15 22 22 23 22 8 335 23 31 36 40 36 25 3 59 68 252 222 274 355 56 78 1 19 14 67 52 29 59 98 133 331 30 354 44 161 69 137 153 225 246 280
4 5 3 5 7 10 15 21 20 20 24 16 6 40 20 9 5 353 77 51 166 189 289 26 36 75 21 5 106 67 44 77 18 22 108 120 69 353 48 31 58 164 102 146 101 37 21
6 4 4 1 3 6 9 14 17 19 22 18 350 349 11 358 355 12 74 116 104 237 321 222 97 31 115 341 57 57 20 323 54 37 12 166 92 351 357 89 41 100 147 68 11 206 275
4 5 5 4 2 4 6 8 10 13 15 21 17 66 4 356 13 48 94 134 151 17 7 63 140 103 106 122 84 61 48 289 29 54 71 130 94 291 40 199 182 97 63 52 112 130 195
355 355 2 1 4 3 5 6 6 5 7 34 38 45 359 16 45 46 57 51 128 4 36 49 89 72 94 81 87 101 117 95 26 138 71 11 129 173 119 115 152 161 173 160 131 207 128
346 351 350 357 359 5 4 4 5 4 7 5 34 50 29 49 77 27 40 45 55 24 26 22 67 30 34 96 62 61 131 11 118 97 163 183 30 38 340 9 360 219 197 143 101 88 199
337 345 349 349 354 359 2 3 5 4 5 12 19 24 32 54 81 110 85 16 23 28 35 18 80 64 80 50 21 158 150 345 50 99 125 125 130 177 194 201 131 202 200 190 158 153 192
330 334 344 349 353 354 357 359 2 9 9 17 31 46 21 354 22 90 107 127 133 61 53 24 24 39 74 84 42 140 104 14 27 126 73 103 216 145 276 246 242 242 214 189 204 211 199
321 325 329 334 343 350 352 357 358 6 18 38 59 25 27 32 353 24 1 45 101 38 353 218 136 160 168 205 204 213 168 203 200 175 160 324 208 165 277 182 196 249 223 220 224 234 262
319 326 330 329 332 339 349 353 0 5 14 45 43 40 52 15 8 19 347 353 21 303 96 88 184 110 205 236 238 245 222 209 197 162 184 161 145 118 272 350 325 292 240 197 184 190 194
306 313 321 325 331 334 341 347 355 6 22 32 40 46 44 320 84 128 353 346 344 339 307 329 274 258 299 323 300 276 260 242 211 219 159 143 129 134 281 337 245 252 158 170 198 219 219
301 297 297 305 312 324 331 339 342 353 3 10 22 31 103 147 201 140 139 315 324 318 305 298 295 262 290 318 13 346 322 270 92 59 197 76 124 293 263 236 305 308 31 36 124 45 16
303 305 301 296 294 299 310 323 327 334 340 340 352 13 349 119 242 192 182 170 167 219 343 293 313 303 309 73 90 224 247 253 222 151 37 115 99 170 147 234 244 272 352 1 203 235 14
299 303 305 302 303 296 289 296 307 308 311 308 315 321 324 285 226 196 209 198 177 155 204 244 218 208 203 82 190 204 243 207 240 195 168 124 175 215 221 249 279 248 299 349 171 353 6
293 294 296 300 298 294 287 270 280 295 311 312 305 305 291 264 281 263 252 245 264 238 160 227 354 232 91 162 190 244 211 251 297 168 180 171 160 197 176 224 268 352 45 42 321 2 353
301 305 310 311 312 306 301 271 268 274 278 272 283 299 287 271 271 284 280 276 268 259 256 215 240 213 216 114 197 151 236 238 200 267 355 259 202 184 187 211 90 58 71 78 352 335 323
Wind_Speed_850mb
39 41 43 46 47 46 41 37 40 35 41 41 36 30 24 21 19 26 41 35 22 32 40 41 38 33 26 12 8 8 17 24 27 29 37 35 30 12 11 12 11 8 5 11 11 11 10
37 38 39 40 43 43 41 36 33 31 28 35 34 29 28 40 36 33 29 29 24 42 38 27 27 30 18 10 8 4 20 26 23 28 35 31 18 13 18 7 7 12 15 10 11 9 7
35 37 38 38 38 40 39 37 34 30 27 28 28 34 33 33 42 37 41 43 38 31 21 25 28 22 14 9 7 8 22 22 22 28 31 23 25 11 14 10 17 20 10 3 14 10 3
40 38 36 34 33 34 35 32 29 28 26 23 23 26 32 39 37 47 44 30 26 20 24 26 21 14 11 14 13 16 19 18 21 26 26 27 21 22 8 25 11 9 9 6 5 19 3
48 47 42 36 30 27 27 28 28 25 22 22 19 21 20 19 21 19 16 19 19 18 15 13 10 9 10 16 16 16 17 20 24 29 31 26 16 14 10 8 9 12 5 2 3 10 7
53 55 55 48 38 28 22 19 19 19 17 16 16 15 13 9 12 17 23 23 15 16 17 13 11 13 8 14 19 16 19 21 13 32 24 9 11 9 8 8 8 7 5 0 4 9 9
55 58 61 60 53 38 24 19 17 14 9 7 10 11 9 10 8 9 20 3 2 11 33 16 15 26 26 26 22 12 16 18 19 11 8 11 16 7 3 2 5 11 8 2 1 4 8
54 58 61 64 62 53 35 20 15 15 15 13 17 11 2 11 7 9 11 2 12 17 23 30 31 35 27 18 14 9 5 4 6 9 4 13 9 4 1 8 12 11 6 3 6 4 3
49 54 58 63 65 62 48 28 19 15 15 15 12 15 16 15 15 6 9 26 16 3 10 19 28 21 16 16 12 17 6 10 13 12 10 13 8 1 5 8 9 7 8 2 4 11 3
47 51 54 58 63 65 58 38 21 18 15 18 12 8 7 8 10 12 8 4 0 3 9 20 16 15 12 7 9 20 9 5 13 11 9 14 3 5 7 9 3 5 1 4 4 7 5
46 49 51 55 57 61 64 52 25 19 17 17 15 7 3 5 3 3 4 2 1 2 11 13 10 7 14 10 4 16 21 13 9 8 5 2 4 7 11 1 3 6 4 5 4 6 5
41 47 51 54 57 59 62 59 36 22 20 22 20 11 3 1 1 2 2 2 3 11 0 10 8 9 6 14 7 6 10 19 10 11 15 8 5 6 5 5 7 12 7 9 7 3 4
43 47 49 53 56 57 60 59 47 25 14 26 30 23 11 6 2 4 4 1 10 12 5 6 5 7 7 11 10 11 10 11 6 10 6 8 6 4 4 7 4 6 9 6 9 7 8
41 47 51 53 56 58 58 59 55 34 19 11 20 24 23 19 13 8 5 9 18 1 1 2 2 5 8 8 7 11 6 7 12 9 7 9 8 4 8 3 7 5 5 9 10 4 8
37 42 47 53 58 60 59 56 57 51 24 14 5 28 32 21 17 13 1 13 10 5 3 4 3 8 7 7 6 9 8 3 4 10 8 7 2 3 7 4 4 3 3 4 12 3 3
33 38 43 48 52 57 61 60 57 57 37 19 10 5 46 25 17 8 12 8 1 4 3 1 5 4 4 8 6 7 4 5 3 8 3 5 7 3 3 4 12 2 9 7 5 2 8
30 32 36 41 47 51 55 58 56 53 43 26 15 4 47 23 13 16 8 5 4 1 1 3 5 6 5 4 5 4 2 2 3 2 9 5 5 3 2 7 11 3 1 9 5 4 6
27 32 34 36 39 45 49 53 57 55 50 23 15 8 43 16 14 10 6 4 1 4 8 5 7 6 4 3 5 5 5 3 1 3 5 2 8 5 2 1 3 5 9 9 7 7 2
25 28 31 33 36 39 43 46 50 55 54 29 7 9 36 21 8 7 3 6 8 9 9 8 5 6 3 4 5 2 3 1 1 3 9 9 2 4 9 6 4 7 8 6 8 5 11
24 27 29 32 35 36 38 41 43 49 50 29 8 7 16 32 19 11 5 7 7 10 7 8 4 5 5 6 9 6 4 0 2 3 7 7 5 9 11 7 8 7 9 11 10 6 9
24 28 30 31 34 37 40 40 41 41 42 30 17 8 9 8 13 11 4 3 5 3 5 9 7 6 3 3 3 1 2 2 5 5 5 6 4 3 9 12 6 9 10 15 19 18 15
24 28 31 31 30 31 34 36 40 38 34 32 10 8 9 8 10 5 10 2 3 2 1 0 9 6 3 2 5 6 10 8 9 3 9 0 5 8 8 5 13 12 22 28 31 19 21
24 28 31 37 38 34 31 32 33 33 33 20 19 14 6 10 9 7 8 6 3 1 1 1 1 2 3 5 9 11 15 7 10 14 11 7 8 3 9 7 13 14 15 19 10 10 14
29 27 29 31 36 35 31 29 27 26 24 19 17 11 5 1 5 3 6 6 7 8 3 3 0 0 1 4 11 10 10 10 9 9 8 10 8 3 6 7 5 9 1 11 13 5 19
37 37 32 31 33 32 30 25 23 21 19 16 14 8 5 2 4 1 6 0 6 9 5 7 4 4 4 4 5 7 3 2 3 6 6 3 6 2 5 5 14 8 6 4 2 6 10
31 32 30 31 32 33 30 27 23 18 14 12 9 8 5 4 8 5 4 6 6 1 10 3 5 7 4 5 4 5 7 6 5 5 9 10 6 7 6 6 10 2 3 8 3 2 11
29 32 32 29 29 31 30 28 24 21 17 13 8 5 4 6 6 9 5 4 4 3 4 6 3 3 4 3 3 8 9 5 7 9 9 7 4 16 14 9 14 9 10 9 2 1 12
34 35 36 36 35 31 28 26 23 21 19 16 12 10 7 5 15 17 11 8 7 6 4 2 5 4 5 5 5 6 6 6 5 6 11 13 13 8 6 7 14 20 9 5 3 18 16
21 18 18 20 25 25 24 23 30 28 24 20 20 15 13 14 18 26 37 37 33 29 16 12 5 5 11 5 4 4 5 2 5 6 2 5 10 8 16 10 11 20 16 9 20 25 32
Wind_Direction_850mb
23 22 22 23 24 25 30 34 36 35 38 45 54 55 54 39 62 99 151 142 109 131 134 136 140 140 137 149 69 167 201 182 166 163 167 160 156 149 144 126 106 88 134 87 103 86 79
17 20 19 22 22 25 29 36 42 39 37 47 58 57 52 69 77 90 113 146 135 124 122 118 128 135 120 82 33 161 182 166 159 163 159 159 161 162 117 82 81 120 104 94 61 46 66
16 15 16 18 24 24 27 37 44 46 47 48 50 54 65 81 84 90 105 119 116 127 126 127 124 120 106 98 82 161 164 159 161 155 154 157 148 139 125 103 114 125 87 52 26 360 31
19 18 16 18 19 27 26 28 43 56 52 59 60 66 81 92 96 99 104 91 96 107 111 116 115 104 79 94 94 147 150 150 147 150 151 135 132 114 73 118 60 66 61 119 1 3 9
34 27 24 22 22 25 31 27 27 40 61 74 73 80 80 97 111 109 77 86 86 88 104 123 129 113 97 91 110 122 141 136 135 134 128 126 121 86 93 75 46 15 166 163 300 35 322
37 36 32 27 24 25 25 35 40 36 33 55 77 83 86 87 92 92 90 92 99 86 99 100 114 107 83 80 91 121 142 145 135 128 113 107 80 76 36 55 189 178 136 208 269 334 353
37 35 33 31 26 21 28 20 38 38 49 87 77 68 95 116 123 139 136 138 67 85 77 75 82 94 94 89 96 109 141 132 136 116 80 34 71 92 130 10 91 107 96 83 33 351 324
35 33 31 30 30 24 22 28 35 40 34 35 37 34 11 222 229 197 190 309 116 122 75 70 79 78 74 83 82 74 136 161 88 84 0 34 89 190 201 72 83 60 103 356 280 1 327
31 30 29 27 26 27 23 24 31 39 35 31 45 34 56 78 85 118 145 111 117 121 88 42 48 50 47 77 54 14 47 95 85 57 19 106 157 175 124 46 80 41 101 74 243 327 53
28 25 26 26 25 23 25 23 25 32 39 46 24 49 58 81 85 102 100 97 24 297 87 343 7 32 17 97 59 33 42 84 46 128 88 84 357 116 82 75 49 133 169 107 29 28 281
21 22 22 22 25 25 22 25 28 27 23 23 28 19 61 78 128 103 98 30 324 241 70 324 343 24 45 83 100 17 32 63 90 102 109 264 64 85 69 16 359 143 98 93 91 87 33
19 18 18 20 21 23 27 25 28 29 26 15 21 28 17 179 43 81 14 37 124 47 221 352 325 348 52 30 39 19 59 74 111 77 38 100 77 62 119 63 64 145 89 53 60 77 28
13 14 16 16 17 21 22 26 26 20 28 37 27 36 38 52 42 9 2 96 43 84 268 314 354 13 77 4 25 31 29 25 77 85 18 26 5 4 92 86 30 78 56 341 349 11 225
7 7 8 11 13 15 22 22 23 22 8 335 23 31 36 40 36 25 3 59 68 252 222 274 355 56 78 1 19 14 67 52 29 59 98 133 331 30 354 44 161 69 137 153 225 246 280
4 5 3 5 7 10 15 21 20 20 24 16 6 40 20 9 5 353 77 51 166 189 289 26 36 75 21 5 106 67 44 77 18 22 108 120 69 353 48 31 58 164 102 146 101 37 21
6 4 4 1 3 6 9 14 17 19 22 18 350 349 11 358 355 12 74 116 104 237 321 222 97 31 115 341 57 57 20 323 54 37 12 166 92 351 357 89 41 100 147 68 11 206 275
4 5 5 4 2 4 6 8 10 13 15 21 17 66 4 356 13 48 94 134 151 17 7 63 140 103 106 122 84 61 48 289 29 54 71 130 94 291 40 199 182 97 63 52 112 130 195
355 355 2 1 4 3 5 6 6 5 7 34 38 45 359 16 45 46 57 51 128 4 36 49 89 72 94 81 87 101 117 95 26 138 71 11 129 173 119 115 152 161 173 160 131 207 128
346 351 350 357 359 5 4 4 5 4 7 5 34 50 29 49 77 27 40 45 55 24 26 22 67 30 34 96 62 61 131 11 118 97 163 183 30 38 340 9 360 219 197 143 101 88 199
337 345 349 349 354 359 2 3 5 4 5 12 19 24 32 54 81 110 85 16 23 28 35 18 80 64 80 50 21 158 150 345 50 99 125 125 130 177 194 201 131 202 200 190 158 153 192
330 334 344 349 353 354 357 359 2 9 9 17 31 46 21 354 22 90 107 127 133 61 53 24 24 39 74 84 42 140 104 14 27 126 73 103 216 145 276 246 242 242 214 189 204 211 199
321 325 329 334 343 350 352 357 358 6 18 38 59 25 27 32 353 24 1 45 101 38 353 218 136 160 168 205 204 213 168 203 200 175 160 324 208 165 277 182 196 249 223 220 224 234 262
319 326 330 329 332 339 349 353 0 5 14 45 43 40 52 15 8 19 347 353 21 303 96 88 184 110 205 236 238 245 222 209 197 162 184 161 145 118 272 350 325 292 240 197 184 190 194
306 313 321 325 331 334 341 347 355 6 22 32 40 46 44 320 84 128 353 346 344 339 307 329 274 258 299 323 300 276 260 242 211 219 159 143 129 134 281 337 245 252 158 170 198 219 219
301 297 297 305 312 324 331 339 342 353 3 10 22 31 103 147 201 140 139 315 324 318 305 298 295 262 290 318 13 346 322 270 92 59 197 76 124 293 263 236 305 308 31 36 124 45 16
303 305 301 296 294 299 310 323 327 334 340 340 352 13 349 119 242 192 182 170 167 219 343 293 313 303 309 73 90 224 247 253 222 151 37 115 99 170 147 234 244 272 352 1 203 235 14
299 303 305 302 303 296 289 296 307 308 311 308 315 321 324 285 226 196 209 198 177 155 204 244 218 208 203 82 190 204 243 207 240 195 168 124 175 215 221 249 279 248 299 349 171 353 6
293 294 296 300 298 294 287 270 280 295 311 312 305 305 291 264 281 263 252 245 264 238 160 227 354 232 91 162 190 244 211 251 297 168 180 171 160 197 176 224 268 352 45 42 321 2 353
301 305 310 311 312 306 301 271 268 274 278 272 283 299 287 271 271 284 280 276 268 259 256 215 240 213 216 114 197 151 236 238 200 267 355 259 202 184 187 211 90 58 71 78 352 335 323